Notices

What's New in latest Release from April 7th, 2021:

- Updated Glossary, including Speed of Maximum Gust, and Total Hourly Precipitation

- Updated national and regional climate services offices contacts and prices information

- Addition of station inventory lists for 1981-2010, 1971-2000, and 1961-1990 Normals.

If you haven't already, please take our survey and provide feedback about our website: https://eccc.sondage-survey.ca/f/LanguageSelection.aspx?s=442ca660-fcf1-47c0-95a9-59707d6fd709

Hourly Data Report for February 27, 2017

TORONTO INTL A
ONTARIO

43°40'36.000" N
79°37'50.000" W
173.40 m
6158731
71624
YYZ

Download Data

Hourly Data (February 2017)
Hourly Data Report for February 27, 2017
TIME
LST
Temp Definition
°C
Dew Point Definition
°C
Rel Hum Definition
%
Precip. Amount Definition
mm

Wind Dir Definition
10's deg

Wind Spd Definition
km/h
Visibility Definition
km
Stn Press Definition
kPa
Hmdx Definition


Wind Chill Definition


Weather Definition


00:00 2.3 -5.8 55   21 19 24.1 99.56     LegendNANA
01:00 2.5 -5.9 54   22 18 24.1 99.57     Mainly Clear
02:00 2.6 -5.6 55   24 27 24.1 99.60     LegendNANA
03:00 2.6 -5.6 55   23 27 24.1 99.65     LegendNANA
04:00 2.8 -5.6 54   23 25 24.1 99.70     Mainly Clear
05:00 2.1 -5.6 57   23 18 24.1 99.74     LegendNANA
06:00 1.7 -5.3 60   22 17 24.1 99.86     LegendNANA
07:00 1.3 -5.0 63   24 15 24.1 99.98     Mainly Clear
08:00 2.7 -4.8 58   23 16 24.1 100.04     LegendNANA
09:00 3.8 -4.4 55   23 26 24.1 100.10     LegendNANA
10:00 5.1 -3.4 54   24 30 24.1 100.12     Mainly Clear
11:00 6.4 -2.7 52   27 27 24.1 100.20     LegendNANA
12:00 7.8 -2.0 50   26 22 24.1 100.24     LegendNANA
13:00 7.9 -3.6 44   28 34 24.1 100.18     Mainly Clear
14:00 8.4 -3.1 44   29 29 24.1 100.15     LegendNANA
15:00 8.3 -5.2 38   27 21 24.1 100.15     LegendNANA
16:00 8.5 -4.7 39   27 23 24.1 100.20     Mainly Clear
17:00 7.8 -5.3 39   28 18 24.1 100.26     LegendNANA
18:00 6.4 -5.9 41   29 15 24.1 100.30     LegendNANA
19:00 5.8 -6.8 40   28 8 24.1 100.30     Mainly Clear
20:00 5.5 -6.4 42   18 7 24.1 100.36     LegendNANA
21:00 4.7 -6.8 43   25 4 24.1 100.34     LegendNANA
22:00 5.2 -6.4 43   15 5 24.1 100.38     Mainly Clear
23:00 3.7 -5.8 50   3 4 24.1 100.36     LegendNANA

Notes on Data Quality.

Legend

  • E = Estimated
  • M = Missing
  • NA = Not Available*
  • [empty] = Indicates an unobserved value
Date modified: